Location: Bush Observatory
(40.2653°N, 94.3194°W)
Time: 03:57:30
(UTC-06:00)

Vanguard 1 - Visible Passes

Search period start: 26 November 2014 00:00
Search period end: 06 December 2014 00:00
Orbit: 652 x 3835 km, 34.3° (Epoch: 24 November)

Date Brightness Start Highest point End Pass type
(mag) Time Alt. Az. Time Alt. Az. Time Alt. Az.
26 Nov 12.8 02:02:21 37° ESE 02:02:21 37° ESE 02:08:16 10° E visible
26 Nov 11.9 04:15:06 50° WSW 04:17:52 54° SSW 04:27:56 10° SE visible
26 Nov 12.6 06:29:30 10° W 06:37:42 19° SW 06:43:33 10° S visible
26 Nov 13.8 18:53:55 10° SSE 19:02:07 13° SE 19:04:10 13° ESE visible
26 Nov 13.4 21:05:21 10° SSW 21:16:56 34° S 21:16:56 34° S visible
26 Nov 14.0 23:27:09 10° WSW 23:29:42 16° WSW 23:29:42 16° WSW visible
27 Nov 12.5 02:22:37 44° ESE 02:22:37 44° ESE 02:29:44 10° ESE visible
27 Nov 12.1 04:35:23 40° WSW 04:39:09 46° SSW 04:48:50 10° SE visible
27 Nov 13.6 19:10:19 10° SSE 19:23:03 20° SE 19:24:35 20° SE visible
27 Nov 13.3 21:25:52 10° SW 21:37:21 37° S 21:37:21 37° S visible
27 Nov 13.8 23:48:52 10° WSW 23:50:07 13° WSW 23:50:07 13° WSW visible
28 Nov 12.4 02:42:55 51° SE 02:42:55 51° SE 02:51:07 10° ESE visible
28 Nov 12.3 04:55:41 32° WSW 05:00:14 38° SW 05:09:30 10° SSE visible
28 Nov 13.4 19:28:52 10° S 19:44:03 27° SE 19:45:01 27° SE visible
28 Nov 13.3 21:46:45 10° SW 21:57:47 38° SSW 21:57:47 38° SSW visible
29 Nov 13.6 00:50:29 14° E 00:50:29 14° E 00:51:33 10° E visible
29 Nov 12.3 03:03:15 54° SSE 03:03:15 54° SSE 03:12:23 10° ESE visible
29 Nov 12.5 05:16:01 25° WSW 05:21:08 30° SW 05:29:49 10° SSE visible
29 Nov 13.2 19:48:22 10° SSW 20:05:09 34° SE 20:05:27 34° SE visible
29 Nov 13.4 22:07:56 10° SW 22:18:13 37° SW 22:18:13 37° SW visible
30 Nov 13.5 01:10:50 18° ESE 01:10:50 18° ESE 01:13:09 10° E visible
30 Nov 12.2 03:23:36 53° S 03:23:36 53° S 03:33:30 10° SE visible
30 Nov 12.7 05:36:22 18° WSW 05:41:52 22° SW 05:49:37 10° S visible
30 Nov 13.8 17:57:39 10° SE 18:04:32 13° ESE 18:12:05 10° ESE visible
30 Nov 13.1 20:08:28 10° SSW 20:25:51 42° SE 20:25:51 42° SE visible
30 Nov 13.4 22:29:22 10° WSW 22:38:37 34° SW 22:38:37 34° SW visible
01 Dec 13.3 01:31:12 23° ESE 01:31:12 23° ESE 01:34:41 10° ESE visible
01 Dec 12.3 03:43:58 48° SSW 03:43:58 48° SSW 03:54:25 10° SE visible
01 Dec 13.0 05:56:44 12° W 06:02:28 16° SW 06:08:27 10° SSW visible
01 Dec 13.6 18:14:02 10° SSE 18:25:16 19° SE 18:33:29 15° ESE visible
01 Dec 12.9 20:29:01 10° SW 20:46:15 49° SSE 20:46:15 49° SSE visible
01 Dec 13.6 22:51:00 10° WSW 22:59:01 31° WSW 22:59:01 31° WSW visible
02 Dec 13.1 01:51:35 28° ESE 01:51:35 28° ESE 01:56:08 10° ESE visible
02 Dec 12.5 04:04:21 41° SW 04:04:21 41° SW 04:15:05 10° SSE visible
02 Dec 13.4 18:32:40 10° S 18:46:05 26° SE 18:53:52 22° ESE visible
02 Dec 12.9 20:49:53 10° SW 21:06:37 55° S 21:06:37 55° S visible
02 Dec 13.7 23:12:48 10° WSW 23:19:23 27° WSW 23:19:23 27° WSW visible
03 Dec 13.0 02:11:59 31° SE 02:11:59 31° SE 02:17:27 10° ESE visible
03 Dec 12.7 04:24:46 33° SW 04:24:46 33° SW 04:35:25 10° SSE visible
03 Dec 13.2 18:52:14 10° SSW 19:07:01 34° SE 19:14:12 28° ESE visible
03 Dec 12.8 21:11:02 10° SW 21:26:58 58° SSW 21:26:58 58° SSW visible
03 Dec 13.8 23:34:43 10° W 23:39:43 22° W 23:39:43 22° W visible
04 Dec 12.9 02:32:24 34° SSE 02:32:24 34° SSE 02:38:36 10° SE visible
04 Dec 12.9 04:45:10 25° SW 04:45:27 25° SW 04:55:15 10° S visible
04 Dec 13.0 19:12:23 10° SSW 19:28:06 41° SE 19:34:31 36° ESE visible
04 Dec 12.9 21:32:24 10° WSW 21:47:16 57° SSW 21:47:16 57° SSW visible
04 Dec 13.9 23:56:42 10° W 00:00:02 18° W 00:00:02 18° W visible
05 Dec 12.9 02:52:49 34° SSE 02:52:49 34° SSE 02:59:33 10° SE visible
05 Dec 13.1 05:05:36 18° WSW 05:06:05 18° SW 05:14:17 10° SSW visible
05 Dec 13.5 17:18:36 10° SSE 17:27:51 18° SE 17:39:24 10° E visible
05 Dec 12.9 19:32:55 10° SW 19:49:22 49° SE 19:54:47 44° ESE visible
05 Dec 13.0 21:53:56 10° WSW 22:07:33 53° SW 22:07:33 53° SW visible
